DW9210 Weather Reports


Display with metric or nautical units.
time (UTC)temp
F
wind
direction
speed
MPH
gust
MPH
rain 1hr
in
rain 24hr
in
rain mn
in
humidity
%
barometer
mb
20260509143503 61 220 5.0 11.0 0.00 0.00 0.00 78 1008.4
20260509143003 61 215 5.0 13.0 0.00 0.00 0.00 77 1008.4
20260509142503 61 216 4.0 13.0 0.00 0.00 0.00 76 1008.4
20260509142003 61 217 4.0 11.0 0.00 0.00 0.00 78 1008.5
20260509141503 61 222 4.0 11.0 0.00 0.00 0.00 78 1008.4
20260509141003 60 223 4.0 9.0 0.00 0.00 0.00 78 1008.5
20260509140524 60 219 4.0 8.0 0.00 0.00 0.00 80 1008.4
20260509140024 60 213 3.0 8.0 0.00 0.00 0.00 81 1008.4
20260509135503 59 215 3.0 7.0 0.00 0.00 0.00 82 1008.4
20260509135003 59 212 2.0 7.0 0.00 0.00 0.00 81 1008.3
20260509134503 59 212 1.0 5.0 0.00 0.00 0.00 81 1008.4
20260509134003 58 218 1.0 4.0 0.00 0.00 0.00 83 1008.4
20260509133503 58 213 1.0 3.0 0.00 0.00 0.00 83 1008.3
20260509133024 57 207 1.0 3.0 0.00 0.00 0.00 83 1008.2
20260509132503 57 215 1.0 3.0 0.00 0.00 0.00 85 1008.1
20260509132024 56 221 0.0 3.0 0.00 0.00 0.00 88 1008.0
20260509131503 56 250 0.0 1.0 0.00 0.00 0.00 87 1008.0
20260509131003 56 0 0.0 0.0 0.00 0.00 0.00 87 1008.0
20260509130503 55 0 0.0 0.0 0.00 0.00 0.00 87 1008.0
20260509130024 55 260 0.0 2.0 0.00 0.00 0.00 87 1007.9
20260509125524 55 290 0.0 2.0 0.00 0.00 0.00 87 1008.1
20260509125003 55 24 0.0 2.0 0.00 0.00 0.00 86 1007.9
20260509124503 54 55 1.0 2.0 0.00 0.00 0.00 87 1007.9
20260509124003 54 108 0.0 2.0 0.00 0.00 0.00 86 1007.9
20260509123503 54 0 0.0 0.0 0.00 0.00 0.00 85 1008.2
20260509123003 54 138 0.0 1.0 0.00 0.00 0.00 85 1008.1
20260509122503 54 148 0.0 2.0 0.00 0.00 0.00 84 1008.1
20260509122003 54 160 1.0 2.0 0.00 0.00 0.00 85 1007.8
20260509121524 54 174 1.0 3.0 0.00 0.00 0.00 85 1007.9
20260509121003 54 31 2.0 7.0 0.00 0.00 0.00 84 1007.6
20260509120503 54 32 3.0 7.0 0.00 0.00 0.00 84 1007.2
20260509120003 54 38 2.0 5.0 0.00 0.00 0.00 85 1007.1
20260509115524 54 31 1.0 3.0 0.00 0.00 0.00 86 1007.2
20260509115003 54 5 2.0 5.0 0.00 0.00 0.00 84 1007.8
20260509114503 53 358 2.0 5.0 0.00 0.00 0.00 86 1007.6
20260509114003 53 336 2.0 3.0 0.00 0.00 0.00 87 1007.7
20260509113503 53 330 1.0 3.0 0.00 0.00 0.00 88 1007.6
20260509113024 53 216 0.0 2.0 0.00 0.00 0.00 89 1007.4
20260509112503 53 166 0.0 2.0 0.00 0.00 0.00 90 1007.4
20260509112003 53 171 0.0 2.0 0.00 0.00 0.00 88 1007.4
20260509111503 53 248 0.0 1.0 0.00 0.00 0.00 88 1007.5
20260509111003 53 248 0.0 1.0 0.00 0.00 0.00 88 1007.5
20260509110524 53 248 0.0 1.0 0.00 0.00 0.00 87 1007.5
20260509110024 53 248 0.0 1.0 0.00 0.00 0.00 88 1007.6
20260509105503 53 256 0.0 2.0 0.00 0.00 0.00 87 1007.6
20260509105003 53 254 0.0 2.0 0.00 0.00 0.00 85 1007.6
20260509104503 53 248 0.0 1.0 0.00 0.00 0.00 85 1007.5
20260509104003 53 248 0.0 1.0 0.00 0.00 0.00 85 1007.5
20260509103503 54 246 0.0 2.0 0.00 0.00 0.00 85 1007.5
20260509103003 54 245 0.0 2.0 0.00 0.00 0.00 86 1007.6
20260509102503 54 241 0.0 1.0 0.00 0.00 0.00 84 1007.6
20260509102003 54 241 0.0 1.0 0.00 0.00 0.00 84 1007.5
20260509101503 54 0 0.0 0.0 0.00 0.00 0.00 83 1007.6
20260509101003 54 0 0.0 0.0 0.00 0.00 0.00 82 1007.6
20260509100503 54 0 0.0 0.0 0.00 0.00 0.00 82 1007.5
20260509100003 54 250 0.0 2.0 0.00 0.00 0.00 80 1007.6
20260509095503 55 256 0.0 2.0 0.00 0.00 0.00 80 1007.6
20260509095024 55 295 0.0 2.0 0.00 0.00 0.00 80 1007.6
20260509094503 55 296 0.0 1.0 0.00 0.00 0.00 80 1007.5
20260509094003 55 295 0.0 1.0 0.00 0.00 0.00 81 1007.6
20260509093524 55 295 0.0 1.0 0.00 0.00 0.00 81 1007.6
20260509093003 55 295 0.0 1.0 0.00 0.00 0.00 78 1007.8
20260509092503 55 295 0.0 1.0 0.00 0.00 0.00 78 1007.8
20260509092003 55 295 0.0 1.0 0.00 0.00 0.00 79 1007.8
20260509091524 56 296 1.0 2.0 0.00 0.00 0.00 79 1007.8
20260509091003 56 287 1.0 3.0 0.00 0.00 0.00 78 1007.8
20260509090503 56 271 1.0 3.0 0.00 0.00 0.00 75 1007.7
20260509090003 56 257 1.0 3.0 0.00 0.00 0.00 74 1007.7
20260509085503 56 218 0.0 2.0 0.00 0.00 0.00 73 1007.6
20260509085003 56 228 1.0 2.0 0.00 0.00 0.00 71 1007.7
20260509084503 56 238 0.0 2.0 0.00 0.00 0.00 72 1007.6
20260509084003 56 224 0.0 2.0 0.00 0.00 0.00 73 1007.7
20260509083503 55 205 1.0 5.0 0.00 0.00 0.00 74 1007.7
20260509083003 55 189 1.0 5.0 0.00 0.00 0.00 76 1007.9
20260509082503 55 192 1.0 5.0 0.00 0.00 0.00 79 1007.9
20260509082003 54 197 1.0 6.0 0.00 0.00 0.00 83 1007.8
20260509081503 54 194 1.0 6.0 0.00 0.00 0.00 85 1007.9
20260509081003 54 193 1.0 2.0 0.00 0.00 0.00 87 1007.9
20260509080503 54 176 0.0 2.0 0.00 0.00 0.00 88 1007.9
20260509080003 54 180 0.0 3.0 0.00 0.00 0.00 88 1007.9
20260509075503 54 171 0.0 3.0 0.00 0.00 0.00 88 1007.9
20260509075024 54 164 0.0 2.0 0.00 0.00 0.00 88 1007.9
20260509074503 54 164 0.0 2.0 0.00 0.00 0.00 88 1008.0
20260509074003 54 0 0.0 0.0 0.00 0.00 0.00 89 1008.0
20260509073503 54 0 0.0 0.0 0.00 0.00 0.00 88 1008.1
20260509073024 54 0 0.0 0.0 0.00 0.00 0.00 88 1008.1
20260509072503 54 0 0.0 0.0 0.00 0.00 0.00 89 1008.1
20260509072003 54 0 0.0 0.0 0.00 0.00 0.00 88 1008.1
20260509071503 54 0 0.0 0.0 0.00 0.00 0.00 87 1008.1
20260509071003 54 0 0.0 0.0 0.00 0.00 0.00 86 1008.3
20260509070503 54 179 0.0 2.0 0.00 0.00 0.00 86 1008.3
20260509070003 54 187 0.0 2.0 0.00 0.00 0.00 86 1008.4
20260509065503 54 229 0.0 1.0 0.00 0.00 0.00 85 1008.4
20260509065003 54 0 0.0 0.0 0.00 0.00 0.00 86 1008.4
20260509064503 54 0 0.0 0.0 0.00 0.00 0.00 86 1008.6
20260509064024 54 0 0.0 0.0 0.00 0.00 0.00 88 1008.6
20260509063503 54 225 0.0 1.0 0.00 0.00 0.00 87 1008.7
20260509063024 54 225 0.0 1.0 0.00 0.00 0.00 86 1008.7
20260509062503 54 0 0.0 0.0 0.00 0.00 0.00 87 1008.7
20260509062003 54 0 0.0 0.0 0.00 0.00 0.00 86 1008.6
20260509061503 54 0 0.0 0.0 0.00 0.00 0.00 86 1008.5
20260509061003 54 0 0.0 0.0 0.00 0.00 0.00 86 1008.5
20260509060503 54 0 0.0 0.0 0.00 0.00 0.00 86 1008.6
20260509060003 54 0 0.0 0.0 0.00 0.00 0.00 86 1008.5
20260509055503 54 0 0.0 0.0 0.00 0.00 0.00 86 1008.6
20260509055024 54 0 0.0 0.0 0.00 0.00 0.00 86 1008.5
20260509054524 54 0 0.0 0.0 0.00 0.00 0.00 86 1008.6
20260509054003 54 229 0.0 1.0 0.00 0.00 0.00 85 1008.7
20260509053503 54 229 0.0 1.0 0.00 0.00 0.00 84 1008.6
20260509053003 54 229 0.0 1.0 0.00 0.00 0.00 84 1008.6
20260509052503 54 229 0.0 1.0 0.00 0.00 0.00 83 1008.6
20260509052003 54 229 0.0 1.0 0.00 0.00 0.00 83 1008.6
20260509051503 54 229 0.0 1.0 0.00 0.00 0.00 84 1008.6
20260509051003 54 228 0.0 1.0 0.00 0.00 0.00 83 1008.6
20260509050503 54 0 0.0 0.0 0.00 0.00 0.00 83 1008.7
20260509050003 54 0 0.0 0.0 0.00 0.00 0.00 83 1008.6
20260509045524 54 0 0.0 0.0 0.00 0.00 0.00 83 1008.6
20260509045003 54 0 0.0 0.0 0.00 0.00 0.00 80 1008.6
20260509044503 53 0 0.0 0.0 0.00 0.00 0.00 81 1008.6
20260509044003 53 0 0.0 0.0 0.00 0.00 0.00 84 1008.7
20260509043503 53 0 0.0 0.0 0.00 0.00 0.00 83 1008.6
20260509043003 53 0 0.0 0.0 0.00 0.00 0.00 82 1008.8
20260509042503 53 0 0.0 0.0 0.00 0.00 0.00 82 1008.8
20260509042003 53 0 0.0 0.0 0.00 0.00 0.00 83 1008.8
20260509041503 53 0 0.0 0.0 0.00 0.00 0.00 81 1009.0
20260509041003 53 229 0.0 1.0 0.00 0.00 0.00 81 1009.1
20260509040503 54 229 0.0 1.0 0.00 0.00 0.00 80 1009.1
20260509040003 54 0 0.0 0.0 0.00 0.00 0.00 80 1009.2
20260509035503 54 0 0.0 0.0 0.00 0.00 0.00 77 1009.1
20260509035003 54 0 0.0 0.0 0.00 0.00 0.00 76 1009.1
20260509034524 55 0 0.0 0.0 0.00 0.00 0.00 76 1009.1
20260509034003 55 0 0.0 0.0 0.00 0.00 0.00 75 1009.1
20260509033503 55 0 0.0 0.0 0.00 0.00 0.00 73 1009.2
20260509033003 56 0 0.0 0.0 0.00 0.00 0.00 72 1009.3
20260509032503 56 0 0.0 0.0 0.00 0.00 0.00 73 1009.3
20260509032024 56 0 0.0 0.0 0.00 0.00 0.00 71 1009.3
20260509031524 56 0 0.0 0.0 0.00 0.00 0.00 75 1009.4
20260509031003 56 0 0.0 0.0 0.00 0.00 0.00 75 1009.5
20260509030503 56 0 0.0 0.0 0.00 0.00 0.00 74 1009.6
20260509030003 57 0 0.0 0.0 0.00 0.00 0.00 75 1009.6
20260509025524 57 0 0.0 0.0 0.00 0.00 0.00 75 1009.5
20260509025024 57 0 0.0 0.0 0.00 0.00 0.00 73 1009.6
20260509024524 57 0 0.0 0.0 0.00 0.00 0.00 72 1009.6
20260509024003 57 0 0.0 0.0 0.00 0.00 0.00 73 1009.6
20260509023524 57 225 0.0 1.0 0.00 0.00 0.00 70 1009.6
20260509023003 57 201 0.0 1.0 0.00 0.00 0.00 70 1009.7
20260509022524 58 190 0.0 2.0 0.00 0.00 0.00 72 1009.7
20260509022024 58 200 1.0 2.0 0.00 0.00 0.00 73 1009.7
20260509021503 58 205 1.0 2.0 0.00 0.00 0.00 72 1009.7
20260509021003 58 204 0.0 2.0 0.00 0.00 0.00 70 1009.7
20260509020503 58 200 0.0 2.0 0.00 0.00 0.00 69 1009.7
20260509020024 59 203 0.0 1.0 0.00 0.00 0.00 68 1009.7
20260509015503 59 212 0.0 1.0 0.00 0.00 0.00 66 1009.8
20260509015003 60 212 0.0 1.0 0.00 0.00 0.00 64 1009.8
20260509014503 60 213 0.0 2.0 0.00 0.00 0.00 63 1009.8
20260509014003 61 210 0.0 2.0 0.00 0.00 0.00 61 1009.8
20260509013503 61 211 0.0 2.0 0.00 0.00 0.00 60 1009.8
20260509013003 61 219 1.0 2.0 0.00 0.00 0.00 54 1009.7
20260509012503 62 221 1.0 2.0 0.00 0.00 0.00 53 1009.7
20260509012003 62 214 1.0 2.0 0.00 0.00 0.00 50 1009.5
20260509011524 62 203 1.0 2.0 0.00 0.00 0.00 51 1009.4
20260509011003 63 199 1.0 3.0 0.00 0.00 0.00 51 1009.5
20260509010503 63 197 1.0 3.0 0.00 0.00 0.00 50 1009.4
20260509010003 63 190 1.0 4.0 0.00 0.00 0.00 50 1009.4
20260509005503 64 194 1.0 4.0 0.00 0.00 0.00 50 1009.4
20260509005003 64 200 2.0 4.0 0.00 0.00 0.00 49 1009.4
20260509004503 64 204 2.0 5.0 0.00 0.00 0.00 49 1009.4
20260509004003 64 201 2.0 6.0 0.00 0.00 0.00 49 1009.4
20260509003503 65 200 2.0 6.0 0.00 0.00 0.00 49 1009.5
20260509003003 65 207 2.0 5.0 0.00 0.00 0.00 47 1009.4
20260509002503 65 199 2.0 5.0 0.00 0.00 0.00 46 1009.5
20260509002003 66 193 2.0 4.0 0.00 0.00 0.00 47 1009.5
20260509001503 66 198 2.0 5.0 0.00 0.00 0.00 46 1009.6
20260509001024 66 203 2.0 6.0 0.00 0.00 0.00 45 1009.7
20260509000503 66 212 2.0 7.0 0.00 0.00 0.00 43 1009.8
20260509000003 67 211 2.0 8.0 0.00 0.00 0.00 45 1009.9
20260508235503 67 212 3.0 8.0 0.00 0.00 0.00 43 1009.9
20260508235003 67 218 3.0 8.0 0.00 0.00 0.00 42 1009.9
20260508234503 67 223 3.0 8.0 0.00 0.00 0.00 43 1009.9
20260508234003 68 217 4.0 11.0 0.00 0.00 0.00 42 1009.9
20260508233503 68 203 4.0 11.0 0.00 0.00 0.00 42 1009.8
20260508233003 68 197 4.0 10.0 0.00 0.00 0.00 43 1009.7
20260508232503 68 205 4.0 10.0 0.00 0.00 0.00 40 1009.9
20260508232003 69 208 3.0 10.0 0.00 0.00 0.00 41 1009.9
20260508231503 69 201 3.0 11.0 0.00 0.00 0.00 39 1009.9
20260508231003 70 209 4.0 11.0 0.00 0.00 0.00 39 1009.9
20260508230503 70 212 4.0 11.0 0.00 0.00 0.00 40 1009.9
20260508230003 70 205 4.0 15.0 0.00 0.00 0.00 40 1009.9
20260508225503 70 205 5.0 15.0 0.00 0.00 0.00 37 1009.8
20260508225024 71 206 5.0 11.0 0.00 0.00 0.00 38 1009.9
20260508224503 71 208 4.0 15.0 0.00 0.00 0.00 36 1009.8
20260508224003 71 213 4.0 15.0 0.00 0.00 0.00 38 1009.8
20260508223503 71 222 4.0 11.0 0.00 0.00 0.00 39 1009.9
20260508223003 71 218 4.0 11.0 0.00 0.00 0.00 38 1009.8
20260508222524 71 218 4.0 13.0 0.00 0.00 0.00 39 1009.9
20260508222003 71 220 5.0 15.0 0.00 0.00 0.00 39 1009.9
20260508221503 71 211 5.0 15.0 0.00 0.00 0.00 36 1009.9
20260508221003 72 195 4.0 11.0 0.00 0.00 0.00 38 1009.9
20260508220524 71 195 4.0 12.0 0.00 0.00 0.00 38 1009.8
20260508220003 72 200 4.0 12.0 0.00 0.00 0.00 40 1009.8
20260508215503 72 196 3.0 9.0 0.00 0.00 0.00 38 1009.8
20260508215003 72 198 5.0 15.0 0.00 0.00 0.00 38 1009.8
20260508214524 72 206 5.0 15.0 0.00 0.00 0.00 37 1009.9
20260508214003 72 204 4.0 15.0 0.00 0.00 0.00 37 1009.8
20260508213503 72 204 4.0 16.0 0.00 0.00 0.00 39 1009.7
20260508213024 72 204 4.0 16.0 0.00 0.00 0.00 40 1009.8
20260508212503 72 210 5.0 16.0 0.00 0.00 0.00 38 1010.0
20260508212003 72 210 5.0 16.0 0.00 0.00 0.00 40 1010.0
20260508211503 72 211 5.0 12.0 0.00 0.00 0.00 39 1010.0
20260508211003 72 217 5.0 13.0 0.00 0.00 0.00 40 1010.1
20260508210503 72 213 4.0 13.0 0.00 0.00 0.00 39 1010.2
20260508210024 72 210 5.0 16.0 0.00 0.00 0.00 39 1010.4
20260508205503 72 199 6.0 16.0 0.00 0.00 0.00 37 1010.4
20260508205024 72 199 6.0 16.0 0.00 0.00 0.00 40 1010.4
20260508204503 72 212 5.0 12.0 0.00 0.00 0.00 36 1010.6
20260508204024 73 219 4.0 14.0 0.00 0.00 0.00 39 1010.7
20260508203503 73 222 5.0 14.0 0.00 0.00 0.00 40 1010.9
20260508203024 73 218 5.0 14.0 0.00 0.00 0.00 40 1011.0
20260508202503 72 214 5.0 12.0 0.00 0.00 0.00 41 1011.2
20260508202003 72 220 5.0 15.0 0.00 0.00 0.00 42 1011.4
20260508201503 72 223 5.0 15.0 0.00 0.00 0.00 39 1011.2
20260508201003 72 217 5.0 14.0 0.00 0.00 0.00 39 1011.3
20260508200503 72 214 4.0 14.0 0.00 0.00 0.00 38 1011.3
20260508200003 71 213 5.0 14.0 0.00 0.00 0.00 41 1011.3
20260508195503 71 215 5.0 14.0 0.00 0.00 0.00 40 1011.2
20260508195003 71 215 5.0 14.0 0.00 0.00 0.00 38 1011.1
20260508194503 71 206 5.0 13.0 0.00 0.00 0.00 41 1011.2
20260508194003 71 195 5.0 13.0 0.00 0.00 0.00 42 1011.2
20260508193503 71 184 5.0 15.0 0.00 0.00 0.00 41 1011.3
20260508193024 71 197 5.0 15.0 0.00 0.00 0.00 42 1011.4
20260508192524 71 217 5.0 14.0 0.00 0.00 0.00 41 1011.5
20260508192003 71 212 5.0 16.0 0.00 0.00 0.00 40 1011.6
20260508191503 71 208 5.0 14.0 0.00 0.00 0.00 38 1011.5
20260508191003 71 214 5.0 13.0 0.00 0.00 0.00 41 1011.6
20260508190503 71 213 4.0 13.0 0.00 0.00 0.00 40 1011.8
20260508190003 71 211 4.0 12.0 0.00 0.00 0.00 40 1011.9
20260508185503 71 209 5.0 12.0 0.00 0.00 0.00 43 1011.9
20260508185003 71 200 5.0 17.0 0.00 0.00 0.00 40 1011.9
20260508184503 71 198 5.0 17.0 0.00 0.00 0.00 42 1012.0
20260508184003 70 211 5.0 15.0 0.00 0.00 0.00 39 1012.1
20260508183503 71 208 5.0 15.0 0.00 0.00 0.00 41 1012.1
20260508183003 71 198 4.0 12.0 0.00 0.00 0.00 42 1012.3
20260508182503 70 211 4.0 11.0 0.00 0.00 0.00 47 1012.4
20260508182003 70 223 6.0 18.0 0.00 0.00 0.00 43 1012.5
20260508181503 70 216 6.0 18.0 0.00 0.00 0.00 42 1012.7
20260508181003 70 202 5.0 14.0 0.00 0.00 0.00 41 1012.7
20260508180503 70 204 5.0 12.0 0.00 0.00 0.00 42 1012.7
20260508180003 70 208 5.0 12.0 0.00 0.00 0.00 42 1013.0
20260508175503 69 214 5.0 12.0 0.00 0.00 0.00 45 1013.0
20260508175003 69 216 4.0 12.0 0.00 0.00 0.00 43 1013.0
20260508174503 69 195 4.0 15.0 0.00 0.00 0.00 44 1013.2
20260508174003 70 190 5.0 15.0 0.00 0.00 0.00 44 1013.3
20260508173503 70 188 4.0 10.0 0.00 0.00 0.00 45 1013.4
20260508173024 70 198 4.0 10.0 0.00 0.00 0.00 46 1013.4
20260508172503 70 205 3.0 10.0 0.00 0.00 0.00 45 1013.5
20260508172003 69 211 3.0 10.0 0.00 0.00 0.00 44 1013.5
20260508171524 69 197 4.0 12.0 0.00 0.00 0.00 44 1013.6
20260508171003 69 184 4.0 12.0 0.00 0.00 0.00 49 1013.8
20260508170503 69 205 4.0 12.0 0.00 0.00 0.00 45 1014.0
20260508170003 69 212 4.0 9.0 0.00 0.00 0.00 50 1014.0
20260508165503 68 206 4.0 14.0 0.00 0.00 0.00 46 1014.2
20260508165004 68 201 4.0 14.0 0.00 0.00 0.00 46 1014.3
20260508164503 68 195 4.0 10.0 0.00 0.00 0.00 46 1014.4
20260508164003 68 200 4.0 11.0 0.00 0.00 0.00 50 1014.6
20260508163503 68 214 4.0 11.0 0.00 0.00 0.00 44 1014.6
20260508163003 67 230 4.0 11.0 0.00 0.00 0.00 48 1014.8
20260508162503 67 230 4.0 12.0 0.00 0.00 0.00 48 1014.9
20260508162003 68 223 4.0 12.0 0.00 0.00 0.00 48 1014.9
20260508161524 68 219 3.0 9.0 0.00 0.00 0.00 46 1014.9
20260508161003 68 202 3.0 10.0 0.00 0.00 0.00 51 1015.0
20260508160503 67 209 4.0 10.0 0.00 0.00 0.00 52 1015.1
20260508160003 67 227 4.0 10.0 0.00 0.00 0.00 51 1015.1
20260508155503 66 236 4.0 9.0 0.00 0.00 0.00 52 1015.1
20260508155003 66 244 4.0 13.0 0.00 0.00 0.00 48 1015.2
20260508154503 66 233 5.0 13.0 0.00 0.00 0.00 47 1015.2
20260508154003 66 222 5.0 13.0 0.00 0.00 0.00 45 1015.3
20260508153503 66 226 4.0 11.0 0.00 0.00 0.00 46 1015.3
20260508153003 66 229 5.0 13.0 0.00 0.00 0.00 48 1015.5
20260508152503 66 233 6.0 13.0 0.00 0.00 0.00 46 1015.5
20260508152024 66 239 5.0 13.0 0.00 0.00 0.00 48 1015.6
20260508151503 66 237 4.0 10.0 0.00 0.00 0.00 48 1015.7
20260508151003 65 234 4.0 10.0 0.00 0.00 0.00 49 1015.7
20260508150503 65 236 5.0 12.0 0.00 0.00 0.00 50 1015.7
20260508150004 65 228 5.0 12.0 0.00 0.00 0.00 46 1015.7
20260508145503 65 221 4.0 10.0 0.00 0.00 0.00 47 1015.6
20260508145003 64 223 4.0 10.0 0.00 0.00 0.00 45 1015.6
20260508144503 64 232 4.0 13.0 0.00 0.00 0.00 50 1015.7
20260508144003 64 233 4.0 13.0 0.00 0.00 0.00 48 1015.7